Weather History for Defiance, OH

Change the Weather History Date:

Sunday, November 10, 2013

  Actual Average Record
Temperature  
Mean Temperature 40 °F -  
Max Temperature 48 °F 52 °F 73 °F (1975)
Min Temperature 32 °F 35 °F 18 °F (1981)
Degree Days  
Heating Degree Days 24    
Moisture  
Dew Point 29 °F    
Average Humidity 59    
Maximum Humidity 85    
Minimum Humidity 46    
Precipitation  
Precipitation 0.00 in - - ()
Sea Level Pressure  
Sea Level Pressure 30.20 in    
Wind  
Wind Speed 7 mph (West)    
Max Wind Speed 17 mph    
Max Gust Speed 23 mph    
Visibility 10 miles    
Events      
Averages and records for this station are not official NWS values.
T = Trace of Precipitation, MM = Missing Value Source: NWS Daily Summary

Daily Weather History Graph

Daily Weather History Graph

Search for Another Location

Airport:

Trip Planner

Search our weather history database for the weather conditions in past years. The results will help you decide how hot, cold, wet, or windy it might be!

Date:

Astronomy

Nov. 10, 2013 Rise Set
Actual Time 7:20 AM EST 5:22 PM EST
Civil Twilight 6:50 AM EST 5:51 PM EST
Nautical Twilight 6:17 AM EST 6:25 PM EST
Astronomical Twilight 5:45 AM EST 6:57 PM EST
Moon 1:31 PM EST (11/10) No Moon Set
Length of Visible Light 11h 00m
Length of Day
10h 02m
First Quarter, 55% of the Moon is Illuminated
Nov 10
First Quarter
Nov 17
Full
Nov 25
Last Quarter
Dec 2
New
Dec 9
First Quarter

Hourly Weather History & Observations

Time (EST) Temp. Windchill Dew Point Humidity Pressure Visibility Wind Dir Wind Speed Gust Speed Precip Events Conditions
12:53 AM 48.0 °F - 35.1 °F 61% 30.00 in 10.0 mi Variable 6.9 mph - N/A   Partly Cloudy
1:53 AM 48.0 °F - 34.0 °F 58% 30.00 in 10.0 mi West 6.9 mph 20.7 mph N/A   Partly Cloudy
2:53 AM 46.9 °F - 32.0 °F 56% 30.00 in 10.0 mi West 8.1 mph - N/A   Clear
3:53 AM 44.1 °F 39.5 °F 28.0 °F 53% 30.03 in 10.0 mi West 8.1 mph 17.3 mph N/A   Partly Cloudy
4:53 AM 43.0 °F 36.8 °F 27.0 °F 53% 30.05 in 10.0 mi West 11.5 mph 20.7 mph N/A   Overcast
5:53 AM 43.0 °F 37.7 °F 24.1 °F 47% 30.09 in 10.0 mi WNW 9.2 mph 21.9 mph N/A   Overcast
6:53 AM 43.0 °F 38.8 °F 25.0 °F 49% 30.12 in 10.0 mi Variable 6.9 mph - N/A   Overcast
7:53 AM 43.0 °F 39.5 °F 27.0 °F 53% 30.15 in 10.0 mi Variable 5.8 mph - N/A   Overcast
8:53 AM 42.1 °F 36.6 °F 28.9 °F 60% 30.19 in 10.0 mi West 9.2 mph - N/A   Overcast
9:53 AM 42.1 °F 37.1 °F 28.9 °F 60% 30.21 in 10.0 mi West 8.1 mph - N/A   Overcast
10:53 AM 43.0 °F 39.5 °F 30.0 °F 60% 30.25 in 10.0 mi West 5.8 mph 17.3 mph N/A   Overcast
11:53 AM 44.1 °F 41.5 °F 30.0 °F 58% 30.26 in 10.0 mi Variable 4.6 mph - N/A   Overcast
12:53 PM 46.9 °F - 30.9 °F 54% 30.26 in 10.0 mi Variable 6.9 mph - N/A   Overcast
1:53 PM 48.9 °F - 30.0 °F 48% 30.25 in 10.0 mi NW 17.3 mph 23.0 mph N/A   Mostly Cloudy
2:53 PM 48.9 °F - 28.9 °F 46% 30.27 in 10.0 mi Variable 6.9 mph 19.6 mph N/A   Mostly Cloudy
3:53 PM 48.9 °F - 28.9 °F 46% 30.28 in 10.0 mi NW 10.4 mph - N/A   Mostly Cloudy
4:53 PM 46.0 °F 41.9 °F 28.0 °F 50% 30.30 in 10.0 mi NW 8.1 mph - N/A   Clear
5:53 PM 44.1 °F 42.5 °F 28.0 °F 53% 30.31 in 10.0 mi Variable 3.5 mph - N/A   Clear
6:53 PM 37.9 °F 35.5 °F 28.0 °F 68% 30.32 in 10.0 mi Variable 3.5 mph - N/A   Clear
7:53 PM 39.0 °F 35.7 °F 28.0 °F 65% 30.32 in 10.0 mi WSW 4.6 mph - N/A   Clear
8:53 PM 36.0 °F 33.3 °F 28.0 °F 73% 30.32 in 10.0 mi WSW 3.5 mph - N/A   Clear
9:53 PM 36.0 °F 33.3 °F 28.9 °F 76% 30.32 in 10.0 mi SW 3.5 mph - N/A   Clear
10:53 PM 33.1 °F - 27.0 °F 78% 30.31 in 10.0 mi Calm Calm - N/A   Clear
11:53 PM 32.0 °F 27.5 °F 28.0 °F 85% 30.30 in 10.0 mi SSW 4.6 mph - N/A   Clear